Lamar, CO

8:32 AM MDT on April 29, 2017 (GMT -0600)
Lamar Municipal

Weather History for KLAA - October, 2014

Change the Weather History Date:

Wednesday, October 8, 2014

  Actual Average Record
Temperature  
Mean Temperature 63 °F 56 °F  
Max Temperature 79 °F 74 °F 94 °F (1926)
Min Temperature 47 °F 39 °F 25 °F (1970)
Degree Days  
Heating Degree Days 2 9  
Month to date heating degree days 55 62  
Since 1 July heating degree days 117 145  
Cooling Degree Days 0 1  
Month to date cooling degree days 0 8  
Year to date cooling degree days 1322 1120  
Growing Degree Days 12 (Base 50)    
Moisture  
Dew Point 50 °F    
Average Humidity 66    
Maximum Humidity 86    
Minimum Humidity 46    
Precipitation  
Precipitation 0.00 in 0.02 in 0.54 in (1957)
Month to date precipitation T  
Year to date precipitation 11.00  
Sea Level Pressure  
Sea Level Pressure 29.90 in    
Wind  
Wind Speed 7 mph (East)    
Max Wind Speed 16 mph    
Max Gust Speed 21 mph    
Visibility 9 miles    
Events      
T = Trace of Precipitation, MM = Missing Value Source: NWS Daily Summary

Daily Weather History Graph

Daily Weather History Graph

Search for Another Location

Airport or City:

Trip Planner

Search our weather history database for the weather conditions in past years. The results will help you decide how hot, cold, wet, or windy it might be!

Date:

Astronomy

Oct. 08, 2014 Rise Set
Actual Time 6:52 AM MDT 6:23 PM MDT
Civil Twilight 6:26 AM MDT 6:49 PM MDT
Nautical Twilight 5:55 AM MDT 7:19 PM MDT
Astronomical Twilight 5:25 AM MDT 7:50 PM MDT
Moon 6:40 PM MDT (10/8) 7:01 AM MDT (10/8)
Length of Visible Light 12h 22m
Length of Day
11h 30m
Full, 100% of the Moon is Illuminated
Oct 8
Full
Oct 15
Last Quarter
Oct 23
New
Oct 30
First Quarter
Nov 6
Full

Hourly Weather History & Observations

Time (MDT) Temp. Dew Point Humidity Pressure Visibility Wind Dir Wind Speed Gust Speed Precip Events Conditions
12:53 AM 52.0 °F 43.0 °F 71% 29.92 in 10.0 mi NE 3.5 mph - N/A   Clear
1:53 AM 51.1 °F 43.0 °F 74% 29.92 in 10.0 mi Calm Calm - N/A   Clear
2:53 AM 50.0 °F 43.0 °F 77% 29.92 in 9.0 mi NNE 4.6 mph - N/A   Clear
3:53 AM 50.0 °F 43.0 °F 77% 29.92 in 10.0 mi NNW 3.5 mph - N/A   Clear
4:53 AM 50.0 °F 44.1 °F 80% 29.94 in 10.0 mi Calm Calm - N/A   Clear
5:53 AM 48.9 °F 43.0 °F 80% 29.95 in 10.0 mi NNE 3.5 mph - N/A   Clear
6:53 AM 48.0 °F 44.1 °F 86% 29.99 in 10.0 mi Calm Calm - N/A   Mostly Cloudy
7:53 AM 54.0 °F 46.0 °F 75% 29.99 in 9.0 mi East 6.9 mph - N/A   Overcast
8:53 AM 57.9 °F 46.9 °F 67% 29.99 in 9.0 mi East 10.4 mph - N/A   Overcast
9:53 AM 64.0 °F 48.9 °F 58% 29.97 in 9.0 mi East 8.1 mph - N/A   Overcast
10:29 AM 64.0 °F 53.1 °F 67% 30.07 in 8.0 mi ESE 11.5 mph - N/A   Scattered Clouds
10:53 AM 66.9 °F 54.0 °F 63% 29.98 in 7.0 mi SE 9.2 mph - N/A   Clear
11:53 AM 70.0 °F 55.0 °F 59% 29.95 in 8.0 mi Variable 4.6 mph - N/A   Clear
12:53 PM 75.0 °F 55.0 °F 50% 29.89 in 8.0 mi ESE 12.7 mph - N/A   Clear
1:53 PM 73.9 °F 55.9 °F 53% 29.86 in 8.0 mi ESE 10.4 mph - N/A   Clear
2:53 PM 75.9 °F 54.0 °F 46% 29.84 in 8.0 mi ESE 11.5 mph - N/A   Clear
3:53 PM 77.0 °F 55.0 °F 47% 29.81 in 8.0 mi East 13.8 mph 19.6 mph N/A   Clear
4:53 PM 75.9 °F 54.0 °F 46% 29.81 in 8.0 mi East 12.7 mph - N/A   Clear
5:53 PM 72.0 °F 57.0 °F 59% 29.82 in 8.0 mi ENE 8.1 mph - N/A   Clear
6:53 PM 64.9 °F 55.9 °F 73% 29.84 in 9.0 mi East 4.6 mph - N/A   Clear
7:53 PM 63.0 °F 51.1 °F 65% 29.84 in 10.0 mi East 5.8 mph - N/A   Clear
8:53 PM 62.1 °F 52.0 °F 70% 29.83 in 10.0 mi East 6.9 mph - N/A   Clear
9:53 PM 60.1 °F 52.0 °F 75% 29.82 in 9.0 mi ENE 6.9 mph - N/A   Clear
10:53 PM 57.9 °F 52.0 °F 81% 29.82 in 9.0 mi East 5.8 mph - N/A   Clear
11:53 PM 57.0 °F 52.0 °F 83% 29.82 in 9.0 mi ENE 8.1 mph - N/A   Clear